Location: Clanezzo
(45.7500°N, 9.6000°E)
Time: 09:29:41
(UTC+00:00)

SPROUT - Pass Details

Date: 04 July 2022
Orbit: 588 x 598 km, 97.9° (Epoch: 14 August)

Event Time Altitude Azimuth Distance (km) Brightness Sun altitude
Exits shadow 00:46:38 33° 247° (WSW) 993 ? -19.0°
Maximum altitude 00:47:07 34° 263° (W) 971 ? -18.9°
Drops below altitude 10° 00:50:57 10° 329° (NNW) 1,927 ? -18.7°
Sets 00:53:16 0° 339° (NNW) 2,834 ? -18.6°
